Regional Weather Roundup
Issued by NWS

Home | Current Version | Previous Version | Text Only | Print | Product List | Glossary On
Versions: 1 2 3 4 5 6 7 8 9 10 11 12 13 14 15 16 17 18 19 20 21 22 23 24 25 26 27 28 29 30 31 32 33 34 35 36 37 38 39 40 41 42 43 44 45 46 47 48 49 50
000
ASUS43 KLSX 041657
RWRMO

WEATHER SUMMARY FOR MISSOURI
NATIONAL WEATHER SERVICE SPRINGFIELD MO
1100 AM CST SUN DEC 04 2016

NOTE: "FAIR" INDICATES FEW OR NO CLOUDS BELOW 12,000 FEET WITH NO
       SIGNIFICANT WEATHER AND/OR OBSTRUCTIONS TO VISIBILITY.
       CURRENT SKY AND/OR WEATHER CONDITIONS ARE NOT AVAILABLE FOR
       CHILLICOTHE AND FARMINGTON.

MOZ001>031-035>038-043-044-053-054-041800-
...NORTHERN AND WESTERN MISSOURI...

CITY           SKY/WX    TMP DP  RH WIND       PRES   REMARKS
KANSAS CTY INT CLOUDY    41  36  82 W7        30.01S
LEE`S SUMMIT   CLOUDY    40  38  93 W10       30.01F
ST JOSEPH      CLOUDY    39  35  86 W10       30.02S
CHILLICOTHE      N/A     34  33  96 SW3       30.02F
KIRKSVILLE     LGT SNOW  33  33 100 CALM      30.00F VSB 1

$$
MOZ066>068-077>081-088>096-101>105-041800-
...SOUTHWEST MISSOURI...

CITY           SKY/WX    TMP DP  RH WIND       PRES   REMARKS
SPRINGFIELD    CLOUDY    43  40  89 W10       30.01R
JOPLIN         CLOUDY    44  42  93 NW13      30.05F
BRANSON        CLOUDY    39  39 100 CALM      30.03S FOG

$$
MOZ032>034-039>042-045>050-055>058-069>072-041800-
...CENTRAL MISSOURI...

CITY           SKY/WX    TMP DP  RH WIND       PRES   REMARKS
COLUMBIA       NOT AVBL
JEFFERSON CITY RAIN      36  34  92 SW5       30.02F FOG
ROLLA          LGT RAIN  36  35  96 SW9       29.98F FOG     WCI  29
SEDALIA        CLOUDY    37  35  92 W5        30.03S
WARRENSBURG    CLOUDY    37  37 100 W5        30.02S
OSAGE BEACH    LGT RAIN  37  37 100 W7        30.02F

$$
MOZ051-052-059>065-041800-
...EAST CENTRAL MISSOURI...

CITY           SKY/WX    TMP DP  RH WIND       PRES   REMARKS
ST LOUIS INTL  LGT RAIN  39  35  86 S6        30.00F FOG

$$
MOZ072>076-082>087-097>100-106>115-041800-
...SOUTH CENTRAL AND SOUTHEAST MISSOURI...

CITY           SKY/WX    TMP DP  RH WIND       PRES   REMARKS
CAPE GIRARDEAU LGT RAIN  42  41  96 SW5       30.01F FOG
POPLAR BLUFF   CLOUDY    41  40  96 CALM      30.03F FOG
WEST PLAINS    CLOUDY    39  38  96 SW6       30.02S

$$


USA.gov is the U.S. government's official web portal to all federal, state and local government web resources and services.